Station Historical Data
Daily Summary for September 29, 2017 Units:  English    Metric   Both
« Previous Day
Next Day »
Daily Weekly Monthly Yearly Custom
  High: Low: Average:
Temperature: 76.7 °F 60.3 °F 66.6 °F
Dew Point: 41.9 °F 34.5 °F 38.5 °F
Humidity: 45 % 22 % 36 %
Wind Speed: 14.0 mph 0.0 mph 2 mph
Wind Gust: 16.0 mph - -
Wind:- - SE
Pressure: 29.99 in 29.91 in -
Precipitation: 0.00 in    
Historical Graphs
 
 
Tabular Data for September 29, 2017
Time Temperature Dew Point Pressure Wind Wind Speed Wind Gust Humidity Rainfall Rate (Hourly) solar
00:04 64.4 °F 38.9 °F 29.96 in East 4.0 mph 12.0 mph 39 % 0.00 in 0.00 W/m2
00:09 64.3 °F 38.8 °F 29.97 in ESE 2.0 mph 14.0 mph 39 % 0.00 in 0.00 W/m2
00:14 64.3 °F 38.8 °F 29.97 in ESE 7.0 mph 12.0 mph 39 % 0.00 in 0.00 W/m2
00:19 64.2 °F 39.4 °F 29.97 in ESE 1.0 mph 12.0 mph 40 % 0.00 in 0.00 W/m2
00:24 64.1 °F 39.3 °F 29.97 in ESE 2.0 mph 12.0 mph 40 % 0.00 in 0.00 W/m2
00:29 64.1 °F 39.3 °F 29.97 in ESE 5.0 mph 14.0 mph 40 % 0.00 in 0.00 W/m2
00:34 64.0 °F 39.2 °F 29.97 in Calm   14.0 mph 40 % 0.00 in 0.00 W/m2
00:39 63.9 °F 39.1 °F 29.97 in Calm   11.0 mph 40 % 0.00 in 0.00 W/m2
00:44 63.8 °F 39.0 °F 29.97 in ESE 5.0 mph 12.0 mph 40 % 0.00 in 0.00 W/m2
00:49 63.7 °F 39.0 °F 29.97 in Calm   9.0 mph 40 % 0.00 in 0.00 W/m2
00:54 63.7 °F 39.0 °F 29.97 in ESE 9.0 mph 12.0 mph 40 % 0.00 in 0.00 W/m2
00:59 63.5 °F 38.8 °F 29.97 in ESE 4.0 mph 13.0 mph 40 % 0.00 in 0.00 W/m2
01:04 63.5 °F 38.8 °F 29.97 in East 4.0 mph 11.0 mph 40 % 0.00 in 0.00 W/m2
01:09 63.4 °F 39.3 °F 29.97 in ESE 7.0 mph 12.0 mph 41 % 0.00 in 0.00 W/m2
01:14 63.3 °F 39.2 °F 29.97 in East 5.0 mph 13.0 mph 41 % 0.00 in 0.00 W/m2
01:19 63.2 °F 39.1 °F 29.97 in ESE 5.0 mph 15.0 mph 41 % 0.00 in 0.00 W/m2
01:24 63.2 °F 39.1 °F 29.97 in ESE 6.0 mph 12.0 mph 41 % 0.00 in 0.00 W/m2
01:29 63.1 °F 39.0 °F 29.97 in Calm   12.0 mph 41 % 0.00 in 0.00 W/m2
01:34 63.0 °F 39.0 °F 29.97 in ESE 7.0 mph 11.0 mph 41 % 0.00 in 0.00 W/m2
01:39 62.9 °F 38.9 °F 29.96 in ESE 1.0 mph 14.0 mph 41 % 0.00 in 0.00 W/m2
01:44 62.8 °F 38.8 °F 29.96 in East 4.0 mph 13.0 mph 41 % 0.00 in 0.00 W/m2
01:49 62.8 °F 39.4 °F 29.96 in Calm   15.0 mph 42 % 0.00 in 0.00 W/m2
01:54 62.7 °F 38.7 °F 29.96 in ESE 5.0 mph 11.0 mph 41 % 0.00 in 0.00 W/m2
01:59 62.7 °F 39.3 °F 29.96 in ESE 2.0 mph 13.0 mph 42 % 0.00 in 0.00 W/m2
02:04 62.6 °F 39.2 °F 29.96 in ESE 2.0 mph 12.0 mph 42 % 0.00 in 0.00 W/m2
02:09 62.6 °F 39.2 °F 29.96 in ESE 2.0 mph 15.0 mph 42 % 0.00 in 0.00 W/m2
02:14 62.6 °F 39.2 °F 29.96 in Calm   13.0 mph 42 % 0.00 in 0.00 W/m2
02:19 62.5 °F 39.1 °F 29.96 in Calm   12.0 mph 42 % 0.00 in 0.00 W/m2
02:24 62.5 °F 39.1 °F 29.96 in Calm   16.0 mph 42 % 0.00 in 0.00 W/m2
02:29 62.4 °F 39.0 °F 29.96 in Calm   13.0 mph 42 % 0.00 in 0.00 W/m2
02:35 62.4 °F 39.0 °F 29.96 in SE 14.0 mph 14.0 mph 42 % 0.00 in 0.00 W/m2
02:40 62.3 °F 38.9 °F 29.96 in ESE 7.0 mph 12.0 mph 42 % 0.00 in 0.00 W/m2
02:45 62.3 °F 38.9 °F 29.96 in ESE 4.0 mph 13.0 mph 42 % 0.00 in 0.00 W/m2
02:50 62.3 °F 38.9 °F 29.96 in ESE 2.0 mph 13.0 mph 42 % 0.00 in 0.00 W/m2
02:55 62.2 °F 38.8 °F 29.95 in Calm   15.0 mph 42 % 0.00 in 0.00 W/m2
03:00 62.2 °F 38.8 °F 29.96 in ESE 5.0 mph 12.0 mph 42 % 0.00 in 0.00 W/m2
03:05 62.2 °F 38.8 °F 29.96 in Calm   13.0 mph 42 % 0.00 in 0.00 W/m2
03:10 62.2 °F 38.8 °F 29.96 in ESE 5.0 mph 13.0 mph 42 % 0.00 in 0.00 W/m2
03:15 62.2 °F 38.8 °F 29.96 in Calm   12.0 mph 42 % 0.00 in 0.00 W/m2
03:20 62.2 °F 38.8 °F 29.96 in East 2.0 mph 9.0 mph 42 % 0.00 in 0.00 W/m2
03:21 62.2 °F 38.8 °F 29.96 in ESE 4.0 mph 9.0 mph 42 % 0.00 in 0.00 W/m2
03:25 62.1 °F 38.8 °F 29.96 in East 1.0 mph 10.0 mph 42 % 0.00 in 0.00 W/m2
03:31 62.1 °F 38.8 °F 29.96 in ESE 7.0 mph 9.0 mph 42 % 0.00 in 0.00 W/m2
03:36 62.0 °F 38.7 °F 29.96 in Calm   9.0 mph 42 % 0.00 in 0.00 W/m2
03:41 62.0 °F 38.7 °F 29.95 in East 6.0 mph 9.0 mph 42 % 0.00 in 0.00 W/m2
03:46 62.0 °F 38.7 °F 29.96 in Calm   12.0 mph 42 % 0.00 in 0.00 W/m2
03:51 61.9 °F 38.6 °F 29.96 in Calm     42 % 0.00 in 0.00 W/m2
03:56 61.8 °F 38.5 °F 29.95 in ESE 7.0 mph 7.0 mph 42 % 0.00 in 0.00 W/m2
04:01 61.8 °F 38.5 °F 29.95 in Calm     42 % 0.00 in 0.00 W/m2
04:06 61.7 °F 38.4 °F 29.95 in Calm   1.0 mph 42 % 0.00 in 0.00 W/m2
04:11 61.7 °F 39.0 °F 29.95 in ESE 1.0 mph 4.0 mph 43 % 0.00 in 0.00 W/m2
04:16 61.6 °F 38.9 °F 29.95 in East 7.0 mph 7.0 mph 43 % 0.00 in 0.00 W/m2
04:21 61.6 °F 38.9 °F 29.95 in SE 6.0 mph 6.0 mph 43 % 0.00 in 0.00 W/m2
04:26 61.5 °F 38.8 °F 29.95 in East 5.0 mph 6.0 mph 43 % 0.00 in 0.00 W/m2
04:31 61.4 °F 38.7 °F 29.95 in ESE 12.0 mph 12.0 mph 43 % 0.00 in 0.00 W/m2
04:36 61.3 °F 38.6 °F 29.95 in ESE 6.0 mph 6.0 mph 43 % 0.00 in 0.00 W/m2
04:41 61.2 °F 38.5 °F 29.95 in ESE 7.0 mph 7.0 mph 43 % 0.00 in 0.00 W/m2
04:46 61.1 °F 38.5 °F 29.95 in East 6.0 mph 9.0 mph 43 % 0.00 in 0.00 W/m2
04:51 61.0 °F 38.4 °F 29.95 in ESE 5.0 mph 8.0 mph 43 % 0.00 in 0.00 W/m2
04:56 60.9 °F 38.3 °F 29.95 in East 8.0 mph 14.0 mph 43 % 0.00 in 0.00 W/m2
05:01 60.8 °F 38.2 °F 29.95 in ESE 5.0 mph 12.0 mph 43 % 0.00 in 0.00 W/m2
05:06 60.8 °F 38.2 °F 29.95 in ESE 1.0 mph 7.0 mph 43 % 0.00 in 0.00 W/m2
05:11 60.7 °F 38.1 °F 29.95 in Calm   7.0 mph 43 % 0.00 in 0.00 W/m2
05:16 60.7 °F 38.1 °F 29.95 in ESE 1.0 mph 9.0 mph 43 % 0.00 in 0.00 W/m2
05:21 60.6 °F 38.0 °F 29.95 in Calm   5.0 mph 43 % 0.00 in 0.00 W/m2
05:26 60.6 °F 38.0 °F 29.95 in ESE 5.0 mph 7.0 mph 43 % 0.00 in 0.00 W/m2
05:31 60.5 °F 37.9 °F 29.95 in ESE 2.0 mph 7.0 mph 43 % 0.00 in 0.00 W/m2
05:36 60.5 °F 37.9 °F 29.95 in Calm   5.0 mph 43 % 0.00 in 0.00 W/m2
05:41 60.5 °F 38.5 °F 29.95 in ESE 11.0 mph 12.0 mph 44 % 0.00 in 0.00 W/m2
05:46 60.5 °F 37.9 °F 29.95 in ESE 6.0 mph 7.0 mph 43 % 0.00 in 0.00 W/m2
05:51 60.5 °F 37.9 °F 29.96 in ESE 5.0 mph 7.0 mph 43 % 0.00 in 0.00 W/m2
05:56 60.5 °F 37.9 °F 29.96 in ESE 5.0 mph 5.0 mph 43 % 0.00 in 0.00 W/m2
06:01 60.5 °F 38.5 °F 29.96 in ESE 2.0 mph 7.0 mph 44 % 0.00 in 0.00 W/m2
06:06 60.5 °F 37.9 °F 29.96 in ESE 6.0 mph 6.0 mph 43 % 0.00 in 0.00 W/m2
06:11 60.5 °F 37.9 °F 29.96 in ESE 2.0 mph 9.0 mph 43 % 0.00 in 0.00 W/m2
06:16 60.5 °F 37.9 °F 29.96 in Calm   6.0 mph 43 % 0.00 in 0.00 W/m2
06:21 60.4 °F 37.8 °F 29.96 in East 7.0 mph 12.0 mph 43 % 0.00 in 0.00 W/m2
06:26 60.4 °F 37.8 °F 29.96 in East 8.0 mph 9.0 mph 43 % 0.00 in 0.00 W/m2
06:31 60.4 °F 37.8 °F 29.95 in ESE 1.0 mph 13.0 mph 43 % 0.00 in 0.00 W/m2
06:36 60.4 °F 37.8 °F 29.95 in Calm   16.0 mph 43 % 0.00 in 0.00 W/m2
06:37 60.3 °F 37.1 °F 29.95 in Calm   16.0 mph 42 % 0.00 in 0.00 W/m2
06:42 60.3 °F 37.7 °F 29.95 in Calm   6.0 mph 43 % 0.00 in 0.00 W/m2
06:47 60.3 °F 37.7 °F 29.95 in ESE 1.0 mph 7.0 mph 43 % 0.00 in 0.00 W/m2
06:52 60.4 °F 37.2 °F 29.96 in Calm   12.0 mph 42 % 0.00 in 5.00 W/m2
06:57 60.3 °F 37.1 °F 29.95 in ESE 6.0 mph 14.0 mph 42 % 0.00 in 5.00 W/m2
07:02 60.4 °F 37.8 °F 29.96 in East 6.0 mph 11.0 mph 43 % 0.00 in 7.00 W/m2
07:07 60.4 °F 37.2 °F 29.95 in East 9.0 mph 15.0 mph 42 % 0.00 in 9.00 W/m2
07:12 60.4 °F 37.2 °F 29.95 in ESE 5.0 mph 8.0 mph 42 % 0.00 in 14.00 W/m2
07:17 60.5 °F 37.3 °F 29.96 in East 5.0 mph 9.0 mph 42 % 0.00 in 18.00 W/m2
07:22 60.5 °F 37.3 °F 29.96 in ESE 4.0 mph 12.0 mph 42 % 0.00 in 16.00 W/m2
07:27 60.5 °F 37.3 °F 29.96 in ESE 4.0 mph 9.0 mph 42 % 0.00 in 18.00 W/m2
07:32 60.6 °F 37.4 °F 29.96 in ESE 6.0 mph 12.0 mph 42 % 0.00 in 25.00 W/m2
07:37 60.6 °F 36.8 °F 29.96 in Calm   13.0 mph 41 % 0.00 in 30.00 W/m2
07:42 60.7 °F 36.9 °F 29.97 in ESE 5.0 mph 8.0 mph 41 % 0.00 in 32.00 W/m2
07:47 60.7 °F 36.9 °F 29.97 in ESE 6.0 mph 6.0 mph 41 % 0.00 in 32.00 W/m2
07:52 60.7 °F 37.5 °F 29.97 in Calm   7.0 mph 42 % 0.00 in 91.00 W/m2
07:57 60.8 °F 37.6 °F 29.97 in East 7.0 mph 9.0 mph 42 % 0.00 in 32.00 W/m2
08:02 60.8 °F 37.6 °F 29.97 in ESE 1.0 mph 11.0 mph 42 % 0.00 in 107.00 W/m2
08:07 60.7 °F 37.5 °F 29.97 in Calm   9.0 mph 42 % 0.00 in 72.00 W/m2
08:08 60.7 °F 37.5 °F 29.97 in ESE 2.0 mph 9.0 mph 42 % 0.00 in 44.00 W/m2
08:13 60.7 °F 37.5 °F 29.97 in Calm   9.0 mph 42 % 0.00 in 63.00 W/m2
08:18 60.7 °F 37.5 °F 29.97 in Calm   8.0 mph 42 % 0.00 in 88.00 W/m2
08:23 60.6 °F 37.4 °F 29.97 in Calm   9.0 mph 42 % 0.00 in 248.00 W/m2
08:28 60.6 °F 37.4 °F 29.97 in ESE 7.0 mph 12.0 mph 42 % 0.00 in 267.00 W/m2
08:33 60.6 °F 38.0 °F 29.97 in ESE 1.0 mph 11.0 mph 43 % 0.00 in 292.00 W/m2
08:38 60.7 °F 38.1 °F 29.98 in ESE 8.0 mph 9.0 mph 43 % 0.00 in 311.00 W/m2
08:43 60.7 °F 38.1 °F 29.98 in Calm   5.0 mph 43 % 0.00 in 338.00 W/m2
08:48 60.8 °F 38.8 °F 29.97 in Calm   8.0 mph 44 % 0.00 in 260.00 W/m2
08:53 60.9 °F 38.3 °F 29.98 in Calm   7.0 mph 43 % 0.00 in 359.00 W/m2
08:58 61.1 °F 38.5 °F 29.97 in Calm   11.0 mph 43 % 0.00 in 383.00 W/m2
09:03 61.4 °F 38.7 °F 29.97 in ESE 4.0 mph 9.0 mph 43 % 0.00 in 278.00 W/m2
09:08 61.7 °F 38.4 °F 29.98 in ESE 4.0 mph 11.0 mph 42 % 0.00 in 471.00 W/m2
09:13 62.1 °F 39.4 °F 29.98 in ESE 2.0 mph 5.0 mph 43 % 0.00 in 485.00 W/m2
09:18 62.4 °F 39.6 °F 29.98 in Calm   1.0 mph 43 % 0.00 in 287.00 W/m2
09:23 62.8 °F 39.4 °F 29.98 in Calm   6.0 mph 42 % 0.00 in 410.00 W/m2
09:25 62.9 °F 38.9 °F 29.98 in Calm   8.0 mph 41 % 0.00 in 527.00 W/m2
09:30 63.3 °F 39.2 °F 29.98 in ESE 6.0 mph 8.0 mph 41 % 0.00 in 550.00 W/m2
09:35 63.7 °F 39.0 °F 29.98 in ESE 4.0 mph 8.0 mph 40 % 0.00 in 494.00 W/m2
09:40 64.1 °F 39.3 °F 29.98 in Calm   6.0 mph 40 % 0.00 in 376.00 W/m2
09:45 64.6 °F 39.8 °F 29.98 in Calm   9.0 mph 40 % 0.00 in 441.00 W/m2
09:50 65.0 °F 40.1 °F 29.98 in SE 6.0 mph 8.0 mph 40 % 0.00 in 536.00 W/m2
09:55 65.4 °F 38.5 °F 29.98 in SE 4.0 mph 13.0 mph 37 % 0.00 in 596.00 W/m2
10:00 65.8 °F 38.8 °F 29.98 in SE 1.0 mph 9.0 mph 37 % 0.00 in 645.00 W/m2
10:05 66.3 °F 40.0 °F 29.98 in Calm   6.0 mph 38 % 0.00 in 545.00 W/m2
10:10 66.8 °F 39.0 °F 29.98 in Calm   6.0 mph 36 % 0.00 in 243.00 W/m2
10:15 67.3 °F 38.7 °F 29.98 in SE 4.0 mph 8.0 mph 35 % 0.00 in 533.00 W/m2
10:20 67.7 °F 39.1 °F 29.98 in Calm   6.0 mph 35 % 0.00 in 476.00 W/m2
10:25 68.3 °F 39.6 °F 29.98 in Calm   5.0 mph 35 % 0.00 in 526.00 W/m2
10:30 68.7 °F 39.2 °F 29.98 in SE 1.0 mph 9.0 mph 34 % 0.00 in 262.00 W/m2
10:35 69.0 °F 39.5 °F 29.98 in Calm   5.0 mph 34 % 0.00 in 406.00 W/m2
10:40 69.4 °F 40.6 °F 29.98 in Calm   9.0 mph 35 % 0.00 in 573.00 W/m2
10:45 69.7 °F 40.1 °F 29.98 in Calm   7.0 mph 34 % 0.00 in 357.00 W/m2
10:50 70.0 °F 39.6 °F 29.98 in Calm   6.0 mph 33 % 0.00 in 399.00 W/m2
10:55 70.3 °F 39.9 °F 29.99 in Calm   8.0 mph 33 % 0.00 in 615.00 W/m2
11:00 70.5 °F 39.2 °F 29.98 in Calm   8.0 mph 32 % 0.00 in 429.00 W/m2
11:05 70.8 °F 39.5 °F 29.98 in Calm   10.0 mph 32 % 0.00 in 698.00 W/m2
11:10 71.3 °F 40.0 °F 29.98 in SSE 10.0 mph 11.0 mph 32 % 0.00 in 754.00 W/m2
11:15 71.6 °F 38.6 °F 29.98 in SE 7.0 mph 11.0 mph 30 % 0.00 in 831.00 W/m2
11:18 71.8 °F 37.9 °F 29.98 in SSE 2.0 mph 8.0 mph 29 % 0.00 in 443.00 W/m2
11:23 72.2 °F 39.1 °F 29.98 in SSW 3.0 mph 8.0 mph 30 % 0.00 in 306.00 W/m2
11:28 72.5 °F 38.5 °F 29.98 in Calm   4.0 mph 29 % 0.00 in 476.00 W/m2
11:33 72.8 °F 39.6 °F 29.98 in SSW 1.0 mph 8.0 mph 30 % 0.00 in 738.00 W/m2
11:38 73.1 °F 39.8 °F 29.98 in Calm   9.0 mph 30 % 0.00 in 636.00 W/m2
11:43 73.5 °F 38.4 °F 29.97 in SSW 3.0 mph 8.0 mph 28 % 0.00 in 613.00 W/m2
11:48 73.8 °F 39.6 °F 29.97 in SW 3.0 mph 7.0 mph 29 % 0.00 in 526.00 W/m2
11:53 73.9 °F 39.7 °F 29.97 in SSW 2.0 mph 5.0 mph 29 % 0.00 in 740.00 W/m2
11:58 74.0 °F 37.9 °F 29.97 in Calm   2.0 mph 27 % 0.00 in 691.00 W/m2
12:03 74.1 °F 39.0 °F 29.97 in SSW 2.0 mph 11.0 mph 28 % 0.00 in 671.00 W/m2
12:08 74.2 °F 39.0 °F 29.97 in Calm   11.0 mph 28 % 0.00 in 654.00 W/m2
12:13 74.3 °F 38.2 °F 29.97 in Calm   6.0 mph 27 % 0.00 in 657.00 W/m2
12:18 74.4 °F 37.3 °F 29.97 in Calm   9.0 mph 26 % 0.00 in 703.00 W/m2
12:23 74.6 °F 37.5 °F 29.97 in Calm   6.0 mph 26 % 0.00 in 617.00 W/m2
12:28 74.8 °F 37.7 °F 29.97 in Calm   2.0 mph 26 % 0.00 in 492.00 W/m2
12:33 75.0 °F 37.8 °F 29.97 in SSW 3.0 mph 6.0 mph 26 % 0.00 in 703.00 W/m2
12:38 75.2 °F 38.0 °F 29.97 in SW 8.0 mph 12.0 mph 26 % 0.00 in 608.00 W/m2
12:43 75.4 °F 37.2 °F 29.97 in Calm   7.0 mph 25 % 0.00 in 541.00 W/m2
12:48 75.4 °F 37.2 °F 29.96 in Calm   8.0 mph 25 % 0.00 in 540.00 W/m2
12:53 75.4 °F 37.2 °F 29.96 in SSW 3.0 mph 8.0 mph 25 % 0.00 in 652.00 W/m2
12:58 75.5 °F 38.2 °F 29.96 in Calm   9.0 mph 26 % 0.00 in 594.00 W/m2
13:03 75.7 °F 36.4 °F 29.97 in SW 8.0 mph 9.0 mph 24 % 0.00 in 469.00 W/m2
13:08 75.9 °F 36.5 °F 29.97 in SW 6.0 mph 10.0 mph 24 % 0.00 in 432.00 W/m2
13:13 76.1 °F 35.7 °F 29.97 in SSW 3.0 mph 12.0 mph 23 % 0.00 in 443.00 W/m2
13:18 76.1 °F 37.8 °F 29.96 in SSE 8.0 mph 9.0 mph 25 % 0.00 in 545.00 W/m2
13:23 76.1 °F 37.8 °F 29.96 in Calm   7.0 mph 25 % 0.00 in 663.00 W/m2
13:28 76.2 °F 36.8 °F 29.97 in SW 6.0 mph 12.0 mph 24 % 0.00 in 582.00 W/m2
13:33 76.2 °F 35.7 °F 29.97 in Calm   9.0 mph 23 % 0.00 in 415.00 W/m2
13:38 76.2 °F 35.7 °F 29.97 in SW 2.0 mph 10.0 mph 23 % 0.00 in 420.00 W/m2
13:43 76.2 °F 35.7 °F 29.97 in South 2.0 mph 5.0 mph 23 % 0.00 in 439.00 W/m2
13:48 76.3 °F 37.9 °F 29.97 in Calm   8.0 mph 25 % 0.00 in 452.00 W/m2
13:53 76.5 °F 37.1 °F 29.97 in SSW 6.0 mph 11.0 mph 24 % 0.00 in 747.00 W/m2
13:58 76.7 °F 36.2 °F 29.96 in SW 4.0 mph 10.0 mph 23 % 0.00 in 696.00 W/m2
14:03 76.7 °F 36.2 °F 29.97 in West 8.0 mph 12.0 mph 23 % 0.00 in 603.00 W/m2
14:08 76.6 °F 35.0 °F 29.96 in WSW 3.0 mph 11.0 mph 22 % 0.00 in 633.00 W/m2
14:13 76.3 °F 35.8 °F 29.96 in Calm   4.0 mph 23 % 0.00 in 480.00 W/m2
14:18 76.3 °F 34.7 °F 29.96 in SSE 1.0 mph 8.0 mph 22 % 0.00 in 357.00 W/m2
14:23 76.3 °F 35.8 °F 29.96 in Calm   5.0 mph 23 % 0.00 in 362.00 W/m2
14:28 76.1 °F 34.5 °F 29.96 in SW 1.0 mph 9.0 mph 22 % 0.00 in 429.00 W/m2
14:33 76.0 °F 36.6 °F 29.96 in Calm   3.0 mph 24 % 0.00 in 399.00 W/m2
14:38 75.7 °F 36.4 °F 29.96 in Calm   6.0 mph 24 % 0.00 in 343.00 W/m2
14:43 75.5 °F 35.2 °F 29.96 in Calm   3.0 mph 23 % 0.00 in 350.00 W/m2
14:48 75.2 °F 36.0 °F 29.96 in SW 6.0 mph 7.0 mph 24 % 0.00 in 341.00 W/m2
14:53 75.2 °F 36.0 °F 29.95 in Calm   5.0 mph 24 % 0.00 in 334.00 W/m2
14:58 75.1 °F 35.9 °F 29.95 in Calm   6.0 mph 24 % 0.00 in 297.00 W/m2
15:03 75.0 °F 35.8 °F 29.96 in Calm   6.0 mph 24 % 0.00 in 260.00 W/m2
15:08 74.7 °F 34.5 °F 29.96 in Calm   6.0 mph 23 % 0.00 in 274.00 W/m2
15:13 74.4 °F 35.3 °F 29.96 in Calm   8.0 mph 24 % 0.00 in 274.00 W/m2
15:18 74.2 °F 35.1 °F 29.96 in Calm   6.0 mph 24 % 0.00 in 262.00 W/m2
15:23 74.2 °F 36.2 °F 29.96 in Calm   7.0 mph 25 % 0.00 in 251.00 W/m2
15:29 74.1 °F 37.1 °F 29.95 in Calm   1.0 mph 26 % 0.00 in 253.00 W/m2
15:31 74.1 °F 36.1 °F 29.95 in Calm   1.0 mph 25 % 0.00 in 244.00 W/m2
15:36 74.0 °F 36.0 °F 29.95 in Calm     25 % 0.00 in 237.00 W/m2
15:41 74.0 °F 37.0 °F 29.95 in Calm   3.0 mph 26 % 0.00 in 251.00 W/m2
15:46 74.0 °F 36.0 °F 29.95 in Calm     25 % 0.00 in 253.00 W/m2
15:51 74.0 °F 37.0 °F 29.94 in Calm     26 % 0.00 in 301.00 W/m2
15:56 73.9 °F 36.9 °F 29.94 in Calm     26 % 0.00 in 287.00 W/m2
16:01 74.0 °F 37.0 °F 29.94 in Calm   2.0 mph 26 % 0.00 in 246.00 W/m2
16:06 74.0 °F 36.0 °F 29.94 in Calm     25 % 0.00 in 221.00 W/m2
16:16 74.0 °F 37.0 °F 29.93 in Calm     26 % 0.00 in 172.00 W/m2
16:21 73.9 °F 36.9 °F 29.94 in Calm     26 % 0.00 in 165.00 W/m2
16:26 73.9 °F 37.8 °F 29.94 in Calm     27 % 0.00 in 167.00 W/m2
16:31 73.7 °F 39.5 °F 29.93 in Calm     29 % 0.00 in 135.00 W/m2
16:36 73.7 °F 39.5 °F 29.93 in Calm     29 % 0.00 in 158.00 W/m2
16:41 73.5 °F 39.3 °F 29.93 in Calm     29 % 0.00 in 169.00 W/m2
16:46 73.3 °F 40.0 °F 29.93 in Calm   2.0 mph 30 % 0.00 in 239.00 W/m2
16:51 73.2 °F 38.2 °F 29.93 in Calm   1.0 mph 28 % 0.00 in 183.00 W/m2
16:57 73.1 °F 38.1 °F 29.93 in Calm     28 % 0.00 in 111.00 W/m2
17:02 73.1 °F 38.1 °F 29.93 in Calm   5.0 mph 28 % 0.00 in 116.00 W/m2
17:07 73.1 °F 40.7 °F 29.92 in Calm     31 % 0.00 in 113.00 W/m2
17:12 73.0 °F 40.6 °F 29.93 in Calm     31 % 0.00 in 81.00 W/m2
17:17 72.7 °F 41.2 °F 29.93 in Calm     32 % 0.00 in 86.00 W/m2
17:22 72.4 °F 40.9 °F 29.93 in Calm     32 % 0.00 in 113.00 W/m2
17:24 72.3 °F 40.8 °F 29.93 in Calm     32 % 0.00 in 105.00 W/m2
17:29 72.1 °F 41.4 °F 29.93 in Calm     33 % 0.00 in 84.00 W/m2
17:34 71.9 °F 40.5 °F 29.92 in Calm   1.0 mph 32 % 0.00 in 79.00 W/m2
17:39 71.7 °F 41.9 °F 29.92 in Calm   2.0 mph 34 % 0.00 in 56.00 W/m2
17:44 71.5 °F 40.1 °F 29.93 in Calm   5.0 mph 32 % 0.00 in 60.00 W/m2
17:49 71.3 °F 40.0 °F 29.92 in Calm     32 % 0.00 in 51.00 W/m2
17:54 71.2 °F 39.0 °F 29.92 in Calm     31 % 0.00 in 37.00 W/m2
17:59 71.0 °F 38.9 °F 29.92 in Calm     31 % 0.00 in 35.00 W/m2
18:04 70.8 °F 39.5 °F 29.92 in Calm   4.0 mph 32 % 0.00 in 25.00 W/m2
18:09 70.7 °F 39.4 °F 29.93 in Calm     32 % 0.00 in 23.00 W/m2
18:14 70.6 °F 39.3 °F 29.93 in Calm     32 % 0.00 in 23.00 W/m2
18:19 70.4 °F 39.2 °F 29.92 in Calm     32 % 0.00 in 25.00 W/m2
18:24 70.2 °F 39.8 °F 29.93 in Calm   1.0 mph 33 % 0.00 in 18.00 W/m2
18:29 70.0 °F 39.6 °F 29.92 in Calm     33 % 0.00 in 19.00 W/m2
18:34 69.9 °F 39.5 °F 29.92 in Calm   1.0 mph 33 % 0.00 in 16.00 W/m2
18:39 69.7 °F 40.1 °F 29.92 in Calm   4.0 mph 34 % 0.00 in 14.00 W/m2
18:44 69.6 °F 39.2 °F 29.92 in Calm   6.0 mph 33 % 0.00 in 18.00 W/m2
18:49 69.4 °F 39.1 °F 29.92 in SSE 4.0 mph 8.0 mph 33 % 0.00 in 18.00 W/m2
18:54 69.3 °F 39.0 °F 29.92 in SSE 2.0 mph 5.0 mph 33 % 0.00 in 7.00 W/m2
18:59 69.1 °F 38.8 °F 29.92 in Calm   4.0 mph 33 % 0.00 in 0.00 W/m2
19:04 68.9 °F 38.6 °F 29.92 in Calm   6.0 mph 33 % 0.00 in 0.00 W/m2
19:09 68.7 °F 38.5 °F 29.92 in SSE 2.0 mph 5.0 mph 33 % 0.00 in 0.00 W/m2
19:14 68.5 °F 39.0 °F 29.92 in Calm   4.0 mph 34 % 0.00 in 0.00 W/m2
19:19 68.3 °F 38.9 °F 29.92 in Calm   7.0 mph 34 % 0.00 in 0.00 W/m2
19:24 68.1 °F 38.7 °F 29.92 in Calm   6.0 mph 34 % 0.00 in 0.00 W/m2
19:29 67.9 °F 38.5 °F 29.92 in SSE 2.0 mph 6.0 mph 34 % 0.00 in 0.00 W/m2
19:34 67.7 °F 38.3 °F 29.92 in Calm   6.0 mph 34 % 0.00 in 0.00 W/m2
19:39 67.5 °F 38.2 °F 29.92 in Calm   1.0 mph 34 % 0.00 in 0.00 W/m2
19:44 67.3 °F 38.0 °F 29.91 in Calm   6.0 mph 34 % 0.00 in 0.00 W/m2
19:49 67.1 °F 37.8 °F 29.91 in SSE 1.0 mph 7.0 mph 34 % 0.00 in 0.00 W/m2
19:54 66.9 °F 37.7 °F 29.91 in SSE 1.0 mph 2.0 mph 34 % 0.00 in 0.00 W/m2
19:59 66.8 °F 37.6 °F 29.92 in Calm   7.0 mph 34 % 0.00 in 0.00 W/m2
20:04 66.5 °F 38.0 °F 29.92 in Calm   2.0 mph 35 % 0.00 in 0.00 W/m2
20:09 66.2 °F 37.8 °F 29.92 in Calm     35 % 0.00 in 0.00 W/m2
20:14 65.8 °F 37.4 °F 29.92 in Calm   1.0 mph 35 % 0.00 in 0.00 W/m2
20:16 65.8 °F 38.1 °F 29.92 in Calm   5.0 mph 36 % 0.00 in 0.00 W/m2
20:21 65.6 °F 38.0 °F 29.92 in Calm     36 % 0.00 in 0.00 W/m2
20:26 65.4 °F 37.8 °F 29.92 in Calm   4.0 mph 36 % 0.00 in 0.00 W/m2
20:31 65.3 °F 37.7 °F 29.92 in Calm     36 % 0.00 in 0.00 W/m2
20:36 65.2 °F 38.3 °F 29.92 in Calm     37 % 0.00 in 0.00 W/m2
20:41 65.1 °F 38.2 °F 29.92 in Calm     37 % 0.00 in 0.00 W/m2
20:46 65.0 °F 38.8 °F 29.92 in Calm     38 % 0.00 in 0.00 W/m2
20:51 65.0 °F 38.8 °F 29.92 in Calm     38 % 0.00 in 0.00 W/m2
20:56 65.0 °F 39.5 °F 29.93 in Calm     39 % 0.00 in 0.00 W/m2
21:01 65.0 °F 39.5 °F 29.92 in Calm     39 % 0.00 in 0.00 W/m2
21:06 64.9 °F 39.4 °F 29.92 in Calm     39 % 0.00 in 0.00 W/m2
21:11 64.9 °F 39.4 °F 29.92 in Calm   4.0 mph 39 % 0.00 in 0.00 W/m2
21:16 64.8 °F 39.9 °F 29.92 in Calm   4.0 mph 40 % 0.00 in 0.00 W/m2
21:21 64.8 °F 39.9 °F 29.92 in Calm   6.0 mph 40 % 0.00 in 0.00 W/m2
21:26 64.7 °F 39.8 °F 29.92 in Calm   7.0 mph 40 % 0.00 in 0.00 W/m2
21:31 64.6 °F 39.8 °F 29.92 in Calm     40 % 0.00 in 0.00 W/m2
21:36 64.4 °F 39.6 °F 29.92 in Calm   1.0 mph 40 % 0.00 in 0.00 W/m2
21:41 64.4 °F 40.2 °F 29.92 in Calm   6.0 mph 41 % 0.00 in 0.00 W/m2
21:46 64.3 °F 40.1 °F 29.92 in Calm     41 % 0.00 in 0.00 W/m2
21:51 64.2 °F 40.7 °F 29.92 in Calm     42 % 0.00 in 0.00 W/m2
21:56 64.1 °F 40.6 °F 29.93 in Calm     42 % 0.00 in 0.00 W/m2
22:01 64.0 °F 41.1 °F 29.92 in Calm   7.0 mph 43 % 0.00 in 0.00 W/m2
22:06 63.8 °F 40.9 °F 29.92 in Calm     43 % 0.00 in 0.00 W/m2
22:16 63.5 °F 41.2 °F 29.92 in SSE 1.0 mph 2.0 mph 44 % 0.00 in 0.00 W/m2
22:22 63.3 °F 41.6 °F 29.92 in Calm     45 % 0.00 in 0.00 W/m2
22:27 63.2 °F 41.5 °F 29.92 in Calm     45 % 0.00 in 0.00 W/m2
22:32 63.0 °F 41.3 °F 29.92 in SE 6.0 mph 6.0 mph 45 % 0.00 in 0.00 W/m2
22:37 62.9 °F 41.3 °F 29.92 in Calm   6.0 mph 45 % 0.00 in 0.00 W/m2
22:42 62.7 °F 40.5 °F 29.92 in SE 5.0 mph 7.0 mph 44 % 0.00 in 0.00 W/m2
22:47 62.6 °F 40.4 °F 29.92 in Calm   8.0 mph 44 % 0.00 in 0.00 W/m2
22:48 62.6 °F 40.4 °F 29.92 in ESE 5.0 mph 8.0 mph 44 % 0.00 in 0.00 W/m2
22:53 62.5 °F 40.3 °F 29.92 in Calm   9.0 mph 44 % 0.00 in 0.00 W/m2
22:58 62.4 °F 40.2 °F 29.92 in Calm   5.0 mph 44 % 0.00 in 0.00 W/m2
23:03 62.3 °F 40.1 °F 29.92 in Calm   8.0 mph 44 % 0.00 in 0.00 W/m2
23:08 62.3 °F 39.5 °F 29.92 in SE 1.0 mph 8.0 mph 43 % 0.00 in 0.00 W/m2
23:13 62.2 °F 39.5 °F 29.92 in ESE 2.0 mph 6.0 mph 43 % 0.00 in 0.00 W/m2
23:18 62.1 °F 39.4 °F 29.92 in ESE 5.0 mph 5.0 mph 43 % 0.00 in 0.00 W/m2
23:23 62.1 °F 38.8 °F 29.92 in Calm   7.0 mph 42 % 0.00 in 0.00 W/m2
23:28 62.0 °F 38.7 °F 29.92 in Calm   8.0 mph 42 % 0.00 in 0.00 W/m2
23:33 61.9 °F 39.2 °F 29.91 in ESE 2.0 mph 8.0 mph 43 % 0.00 in 0.00 W/m2
23:38 61.8 °F 38.5 °F 29.91 in Calm   9.0 mph 42 % 0.00 in 0.00 W/m2
23:43 61.7 °F 38.4 °F 29.91 in ESE 7.0 mph 7.0 mph 42 % 0.00 in 0.00 W/m2
23:48 61.6 °F 38.3 °F 29.91 in ESE 6.0 mph 14.0 mph 42 % 0.00 in 0.00 W/m2
23:53 61.5 °F 38.2 °F 29.91 in Calm   9.0 mph 42 % 0.00 in 0.00 W/m2
23:58 61.4 °F 38.1 °F 29.91 in ESE 6.0 mph 12.0 mph 42 % 0.00 in 0.00 W/m2
Juneau County Weather
Compliments of Weather Underground - 4.5 mb
 WU-history PHP script courtesy of   Juneau County Weather.
powered by Cumulus v1.9.3 (1059)
Ambient Weather VWS v14.00
Top Contact Website Map Copyright © 2007 - 2018 Foresthillweather.com Never base important decisions on this or any weather information obtained from the Internet